EW1890 Weather Reports


time (UTC)temp
C
wind
direction
speed
KPH
gust
KPH
rain 1hr
cm
rain 24hr
cm
rain mn
cm
humidity
%
barometer
mb
20260906230807 23 187 9.7 19.3 0.00 0.00 0.00 30 1017.3
20260906230312 23 198 12.9 19.3 0.00 0.00 0.00 28 1017.4
20260906225819 23 194 11.3 20.9 0.00 0.00 0.00 27 1017.3
20260906225307 23 202 12.9 20.9 0.00 0.00 0.00 26 1017.4
20260906224831 24 195 14.5 24.1 0.00 0.00 0.00 27 1017.4
20260906224337 24 205 16.1 24.1 0.00 0.00 0.00 26 1017.3
20260906223823 25 211 12.9 22.5 0.00 0.00 0.00 25 1017.5
20260906223321 25 209 17.7 22.5 0.00 0.00 0.00 23 1017.5
20260906222807 25 208 9.7 24.1 0.00 0.00 0.00 23 1017.4
20260906222313 25 214 16.1 33.8 0.00 0.00 0.00 22 1017.6
20260906221814 25 226 22.5 35.4 0.00 0.00 0.00 21 1017.6
20260906221321 25 205 20.9 35.4 0.00 0.00 0.00 22 1017.6
20260906220806 25 209 16.1 32.2 0.00 0.00 0.00 24 1017.6
20260906220333 25 182 16.1 32.2 0.00 0.00 0.00 22 1017.6
20260906215819 25 180 12.9 24.1 0.00 0.00 0.00 23 1017.7
20260906215321 26 227 16.1 27.4 0.00 0.00 0.00 21 1017.7
20260906214820 26 217 14.5 29.0 0.00 0.00 0.00 21 1017.7
20260906214305 26 236 11.3 27.4 0.00 0.00 0.00 21 1017.9
20260906213833 26 224 12.9 25.7 0.00 0.00 0.00 22 1018.1
20260906213318 26 221 17.7 27.4 0.00 0.00 0.00 21 1018.1
20260906212803 26 212 17.7 27.4 0.00 0.00 0.00 20 1018.2
20260906212308 25 172 11.3 25.7 0.00 0.00 0.00 24 1018.3
20260906211834 25 217 12.9 29.0 0.00 0.00 0.00 21 1018.4
20260906211319 26 205 20.9 30.6 0.00 0.00 0.00 22 1018.5
20260906210826 26 199 19.3 30.6 0.00 0.00 0.00 20 1018.4
20260906210305 26 201 19.3 35.4 0.00 0.00 0.00 22 1018.5
20260906205839 26 199 24.1 35.4 0.00 0.00 0.00 20 1018.6
20260906205316 26 185 20.9 33.8 0.00 0.00 0.00 21 1018.6
20260906204849 26 199 22.5 33.8 0.00 0.00 0.00 20 1018.7
20260906204306 26 200 20.9 32.2 0.00 0.00 0.00 22 1018.7
20260906203833 26 211 16.1 27.4 0.00 0.00 0.00 21 1018.7
20260906203319 26 192 20.9 29.0 0.00 0.00 0.00 21 1018.7
20260906202825 26 202 22.5 29.0 0.00 0.00 0.00 21 1018.8
20260906202306 25 215 17.7 37.0 0.00 0.00 0.00 22 1018.6
20260906201808 25 207 19.3 37.0 0.00 0.00 0.00 22 1018.5
20260906201335 25 197 27.4 37.0 0.00 0.00 0.00 23 1018.7
20260906200849 25 165 17.7 35.4 0.00 0.00 0.00 23 1018.8
20260906200307 25 142 19.3 38.6 0.00 0.00 0.00 21 1018.7
20260906195833 25 185 25.7 38.6 0.00 0.00 0.00 22 1018.7
20260906195318 25 182 19.3 32.2 0.00 0.00 0.00 23 1018.7
20260906194826 25 201 11.3 27.4 0.00 0.00 0.00 23 1018.7
20260906194310 25 173 11.3 27.4 0.00 0.00 0.00 23 1018.9
20260906193809 25 185 12.9 27.4 0.00 0.00 0.00 23 1018.9
20260906193315 25 182 19.3 27.4 0.00 0.00 0.00 25 1018.9
20260906192822 24 131 16.1 27.4 0.00 0.00 0.00 24 1019.0
20260906192329 24 156 14.5 24.1 0.00 0.00 0.00 23 1019.2
20260906191813 24 163 14.5 30.6 0.00 0.00 0.00 24 1019.4
20260906191312 24 177 20.9 32.2 0.00 0.00 0.00 25 1019.5
20260906190818 25 153 20.9 33.8 0.00 0.00 0.00 26 1019.6
20260906190304 25 215 20.9 33.8 0.00 0.00 0.00 24 1019.9
20260906185831 24 188 11.3 35.4 0.00 0.00 0.00 25 1019.8
20260906185317 25 182 12.9 32.2 0.00 0.00 0.00 22 1019.9
20260906184817 24 194 16.1 32.2 0.00 0.00 0.00 24 1020.1
20260906184322 23 182 19.3 32.2 0.00 0.00 0.00 23 1020.3
20260906183809 24 159 16.1 29.0 0.00 0.00 0.00 24 1020.3
20260906183337 24 170 20.9 35.4 0.00 0.00 0.00 23 1020.4
20260906182815 24 187 22.5 35.4 0.00 0.00 0.00 24 1020.5
20260906182345 24 207 9.7 27.4 0.00 0.00 0.00 26 1020.5
20260906181806 23 194 17.7 33.8 0.00 0.00 0.00 27 1020.5
20260906181313 23 177 17.7 33.8 0.00 0.00 0.00 26 1020.5
20260906180819 23 168 20.9 29.0 0.00 0.00 0.00 26 1020.5
20260906180319 23 203 4.8 19.3 0.00 0.00 0.00 28 1020.5
20260906175806 22 182 3.2 19.3 0.00 0.00 0.00 27 1020.7
20260906175333 22 148 4.8 17.7 0.00 0.00 0.00 27 1020.8
20260906174818 22 136 3.2 16.1 0.00 0.00 0.00 29 1021.0
20260906174305 22 122 1.6 14.5 0.00 0.00 0.00 29 1021.1
20260906173804 22 169 3.2 14.5 0.00 0.00 0.00 29 1021.2
20260906173310 21 159 6.4 14.5 0.00 0.00 0.00 28 1021.4
20260906172816 21 153 3.2 14.5 0.00 0.00 0.00 29 1021.4
20260906172323 21 171 8.0 16.1 0.00 0.00 0.00 29 1021.4
20260906171807 21 172 4.8 16.1 0.00 0.00 0.00 29 1021.6
20260906171314 21 209 6.4 11.3 0.00 0.00 0.00 29 1021.6
20260906170838 21 132 1.6 12.9 0.00 0.00 0.00 30 1021.7
20260906170324 21 168 4.8 12.9 0.00 0.00 0.00 29 1021.7
20260906165808 20 167 3.2 9.7 0.00 0.00 0.00 29 1021.7
20260906165314 20 154 1.6 9.7 0.00 0.00 0.00 30 1021.8
20260906164820 20 155 1.6 12.9 0.00 0.00 0.00 31 1021.8
20260906164308 20 134 1.6 14.5 0.00 0.00 0.00 32 1021.9
20260906163808 20 135 4.8 14.5 0.00 0.00 0.00 32 1021.9
20260906163313 19 130 3.2 14.5 0.00 0.00 0.00 32 1021.9
20260906162820 19 137 0.0 8.0 0.00 0.00 0.00 32 1021.9
20260906162328 18 144 0.0 9.7 0.00 0.00 0.00 34 1021.9
20260906161814 18 143 0.0 12.9 0.00 0.00 0.00 34 1021.9
20260906161315 18 162 4.8 11.3 0.00 0.00 0.00 36 1022.0
20260906160821 17 137 0.0 0.0 0.00 0.00 0.00 38 1022.0
20260906160328 17 136 0.0 0.0 0.00 0.00 0.00 39 1022.0
20260906155813 16 127 0.0 0.0 0.00 0.00 0.00 41 1022.1
20260906155341 16 125 0.0 0.0 0.00 0.00 0.00 39 1022.2
20260906154808 16 128 0.0 0.0 0.00 0.00 0.00 38 1022.3
20260906154307 16 125 0.0 0.0 0.00 0.00 0.00 40 1022.3
20260906153813 15 125 0.0 0.0 0.00 0.00 0.00 40 1022.3
20260906153320 15 124 0.0 0.0 0.00 0.00 0.00 40 1022.3
20260906152806 15 125 0.0 0.0 0.00 0.00 0.00 41 1022.3
20260906152312 15 125 0.0 0.0 0.00 0.00 0.00 42 1022.3
20260906151811 14 125 0.0 0.0 0.00 0.00 0.00 43 1022.4
20260906151341 14 125 0.0 0.0 0.00 0.00 0.00 44 1022.4
20260906150806 14 125 0.0 0.0 0.00 0.00 0.00 43 1022.4
20260906150313 14 134 0.0 0.0 0.00 0.00 0.00 45 1022.5
20260906145812 13 138 0.0 4.8 0.00 0.00 0.00 47 1022.5
20260906145318 13 107 0.0 0.0 0.00 0.00 0.00 47 1022.5
20260906144805 13 360 0.0 1.6 0.00 0.00 0.00 48 1022.5
20260906144312 13 360 0.0 1.6 0.00 0.00 0.00 49 1022.5
20260906143811 12 350 0.0 0.0 0.00 0.00 0.00 50 1022.4
20260906143319 11 355 0.0 0.0 0.00 0.00 0.00 52 1022.3
20260906142824 11 355 0.0 0.0 0.00 0.00 0.00 53 1022.3
20260906142309 10 355 0.0 0.0 0.00 0.00 0.00 57 1022.3
20260906141809 9 355 0.0 0.0 0.00 0.00 0.00 57 1022.3
20260906141315 8 355 0.0 0.0 0.00 0.00 0.00 58 1022.3
20260906140821 7 355 0.0 0.0 0.00 0.00 0.00 59 1022.3
20260906140329 7 355 0.0 0.0 0.00 0.00 0.00 60 1022.3
20260906135808 6 355 0.0 4.8 0.00 0.00 0.00 62 1022.3
20260906135315 6 355 0.0 8.0 0.00 0.00 0.00 63 1022.3
20260906134822 5 355 3.2 8.0 0.00 0.00 0.00 65 1022.3
20260906134308 5 360 4.8 8.0 0.00 0.00 0.00 67 1022.3
20260906133835 3 11 3.2 4.8 0.00 0.00 0.00 68 1022.3
20260906133314 3 11 0.0 6.4 0.00 0.00 0.00 69 1022.2
20260906132828 3 11 3.2 4.8 0.00 0.00 0.00 69 1022.1
20260906132307 3 11 3.2 4.8 0.00 0.00 0.00 70 1022.1
20260906131813 2 10 1.6 6.4 0.00 0.00 0.00 70 1022.0
20260906131319 2 355 4.8 8.0 0.00 0.00 0.00 70 1021.7
20260906130826 2 355 4.8 8.0 0.00 0.00 0.00 70 1021.8
20260906130305 2 355 6.4 8.0 0.00 0.00 0.00 70 1021.9
20260906125811 2 355 6.4 8.0 0.00 0.00 0.00 69 1021.9
20260906125317 2 355 3.2 4.8 0.00 0.00 0.00 69 1021.9
20260906124826 2 355 0.0 3.2 0.00 0.00 0.00 69 1021.9
20260906124312 2 355 1.6 6.4 0.00 0.00 0.00 69 1021.8
20260906123811 2 355 3.2 8.0 0.00 0.00 0.00 69 1021.8
20260906123324 2 355 6.4 8.0 0.00 0.00 0.00 69 1021.7
20260906122803 2 355 4.8 6.4 0.00 0.00 0.00 68 1021.7
20260906122308 2 355 3.2 6.4 0.00 0.00 0.00 68 1021.7
20260906121814 2 355 3.2 6.4 0.00 0.00 0.00 68 1021.8
20260906121321 2 355 3.2 6.4 0.00 0.00 0.00 67 1021.7
20260906120807 2 355 4.8 6.4 0.00 0.00 0.00 67 1021.7
20260906120314 2 355 4.8 6.4 0.00 0.00 0.00 67 1021.8
20260906115813 3 355 4.8 4.8 0.00 0.00 0.00 66 1021.8
20260906115319 3 355 3.2 3.2 0.00 0.00 0.00 65 1021.9
20260906114806 3 355 0.0 3.2 0.00 0.00 0.00 65 1021.9
20260906114335 3 355 1.6 4.8 0.00 0.00 0.00 66 1021.9
20260906113822 3 355 1.6 4.8 0.00 0.00 0.00 66 1021.9
20260906113321 3 355 3.2 4.8 0.00 0.00 0.00 68 1021.9
20260906112807 3 355 3.2 8.0 0.00 0.00 0.00 68 1021.9
20260906112314 3 355 4.8 8.0 0.00 0.00 0.00 66 1021.9
20260906111823 3 355 4.8 8.0 0.00 0.00 0.00 65 1021.9
20260906111321 3 355 4.8 6.4 0.00 0.00 0.00 65 1021.9
20260906110828 3 355 1.6 4.8 0.00 0.00 0.00 65 1021.9
20260906110313 3 355 3.2 8.0 0.00 0.00 0.00 65 1021.7
20260906105819 3 355 3.2 8.0 0.00 0.00 0.00 65 1021.6
20260906105326 3 355 3.2 8.0 0.00 0.00 0.00 63 1021.7
20260906104805 3 355 0.0 3.2 0.00 0.00 0.00 62 1021.7
20260906104313 4 355 0.0 3.2 0.00 0.00 0.00 61 1021.6
20260906103821 4 355 0.0 4.8 0.00 0.00 0.00 61 1021.7
20260906103328 4 355 3.2 8.0 0.00 0.00 0.00 61 1021.6
20260906102806 4 355 4.8 8.0 0.00 0.00 0.00 61 1021.5
20260906102313 5 355 0.0 3.2 0.00 0.00 0.00 61 1021.5
20260906101820 5 355 0.0 3.2 0.00 0.00 0.00 62 1021.5
20260906101329 5 355 0.0 3.2 0.00 0.00 0.00 62 1021.6
20260906100814 5 355 0.0 3.2 0.00 0.00 0.00 61 1021.6
20260906100320 5 355 1.6 4.8 0.00 0.00 0.00 61 1021.5
20260906095827 5 355 3.2 4.8 0.00 0.00 0.00 60 1021.4
20260906095308 5 355 0.0 4.8 0.00 0.00 0.00 62 1021.4
20260906094834 5 355 1.6 4.8 0.00 0.00 0.00 61 1021.4
20260906094319 5 337 3.2 6.4 0.00 0.00 0.00 61 1021.4
20260906093806 5 337 3.2 6.4 0.00 0.00 0.00 61 1021.2
20260906093312 5 337 3.2 4.8 0.00 0.00 0.00 60 1021.2
20260906092818 5 337 0.0 6.4 0.00 0.00 0.00 60 1021.3
20260906092326 5 337 0.0 6.4 0.00 0.00 0.00 61 1021.2
20260906091832 5 337 4.8 6.4 0.00 0.00 0.00 61 1021.2
20260906091312 5 333 3.2 4.8 0.00 0.00 0.00 61 1021.3
20260906090818 5 333 1.6 4.8 0.00 0.00 0.00 61 1021.3
20260906090326 6 332 4.8 8.0 0.00 0.00 0.00 61 1021.4
20260906085811 6 332 4.8 8.0 0.00 0.00 0.00 61 1021.3
20260906085317 6 332 6.4 8.0 0.00 0.00 0.00 61 1021.3
20260906084825 5 332 6.4 9.7 0.00 0.00 0.00 61 1021.3
20260906084304 5 332 6.4 9.7 0.00 0.00 0.00 62 1021.4
20260906083810 5 332 4.8 6.4 0.00 0.00 0.00 62 1021.4
20260906083318 5 332 1.6 4.8 0.00 0.00 0.00 60 1021.4
20260906082825 6 332 0.0 4.8 0.00 0.00 0.00 58 1021.4
20260906082324 6 332 3.2 6.4 0.00 0.00 0.00 57 1021.2
20260906081810 6 332 3.2 9.7 0.00 0.00 0.00 55 1021.3
20260906081337 6 332 6.4 9.7 0.00 0.00 0.00 55 1021.2
20260906080803 6 332 8.0 9.7 0.00 0.00 0.00 55 1021.2
20260906080310 6 332 8.0 9.7 0.00 0.00 0.00 56 1021.2
20260906075818 6 332 8.0 11.3 0.00 0.00 0.00 58 1021.3
20260906075344 6 332 8.0 9.7 0.00 0.00 0.00 59 1021.3
20260906074825 6 332 6.4 8.0 0.00 0.00 0.00 59 1021.3
20260906074310 6 332 6.4 11.3 0.00 0.00 0.00 59 1021.4
20260906073817 6 332 6.4 11.3 0.00 0.00 0.00 59 1021.3
20260906073306 6 332 8.0 9.7 0.00 0.00 0.00 58 1021.3
20260906072803 6 332 8.0 9.7 0.00 0.00 0.00 55 1021.3
20260906072310 7 332 8.0 8.0 0.00 0.00 0.00 54 1021.3
20260906071816 7 332 6.4 8.0 0.00 0.00 0.00 53 1021.3
20260906071324 8 332 4.8 8.0 0.00 0.00 0.00 51 1021.2
20260906070802 8 332 6.4 8.0 0.00 0.00 0.00 50 1021.2
20260906070309 8 332 4.8 8.0 0.00 0.00 0.00 50 1021.2
20260906065837 8 332 6.4 8.0 0.00 0.00 0.00 51 1021.2
20260906065305 8 332 6.4 8.0 0.00 0.00 0.00 51 1021.2
20260906064808 8 332 6.4 9.7 0.00 0.00 0.00 50 1021.2
20260906064308 8 332 6.4 9.7 0.00 0.00 0.00 48 1021.2
20260906063814 8 333 8.0 9.7 0.00 0.00 0.00 47 1021.1
20260906063321 8 11 4.8 8.0 0.00 0.00 0.00 48 1021.0
20260906062827 8 11 6.4 8.0 0.00 0.00 0.00 48 1021.0
20260906062306 8 36 4.8 8.0 0.00 0.00 0.00 47 1021.1
20260906061813 8 91 3.2 8.0 0.00 0.00 0.00 46 1021.1
20260906061319 8 92 0.0 0.0 0.00 0.00 0.00 45 1021.2
20260906060804 9 92 0.0 0.0 0.00 0.00 0.00 44 1021.0
20260906060310 9 92 0.0 1.6 0.00 0.00 0.00 43 1021.0
20260906055811 9 92 0.0 3.2 0.00 0.00 0.00 44 1021.0
20260906055317 8 92 1.6 4.8 0.00 0.00 0.00 44 1021.1
20260906054803 8 92 3.2 4.8 0.00 0.00 0.00 44 1021.1
20260906054331 8 92 3.2 4.8 0.00 0.00 0.00 46 1021.1
20260906053837 8 92 1.6 8.0 0.00 0.00 0.00 47 1021.1
20260906053303 8 92 3.2 8.0 0.00 0.00 0.00 48 1021.2
20260906052809 9 108 0.0 6.4 0.00 0.00 0.00 49 1021.2
20260906052337 9 355 0.0 4.8 0.00 0.00 0.00 47 1021.2
20260906051824 9 355 0.0 4.8 0.00 0.00 0.00 46 1021.1
20260906051303 9 355 0.0 4.8 0.00 0.00 0.00 45 1021.1
20260906050836 10 355 1.6 6.4 0.00 0.00 0.00 44 1021.1
20260906050343 10 355 3.2 8.0 0.00 0.00 0.00 43 1021.0
20260906045802 10 355 6.4 8.0 0.00 0.00 0.00 43 1021.0
20260906045308 10 355 4.8 6.4 0.00 0.00 0.00 41 1020.9
20260906044815 11 355 3.2 6.4 0.00 0.00 0.00 39 1021.0
20260906044322 11 355 4.8 6.4 0.00 0.00 0.00 38 1021.0
20260906043829 11 355 1.6 8.0 0.00 0.00 0.00 37 1021.0
20260906043309 12 355 6.4 9.7 0.00 0.00 0.00 37 1020.9
20260906042815 12 355 6.4 9.7 0.00 0.00 0.00 37 1020.9
20260906042322 12 355 4.8 9.7 0.00 0.00 0.00 37 1020.9
20260906041809 11 355 6.4 9.7 0.00 0.00 0.00 37 1020.9
20260906041309 11 355 6.4 9.7 0.00 0.00 0.00 37 1020.9
20260906040813 12 355 4.8 8.0 0.00 0.00 0.00 37 1020.8
20260906040340 12 355 4.8 8.0 0.00 0.00 0.00 36 1020.8
20260906035805 12 355 4.8 8.0 0.00 0.00 0.00 35 1020.8
20260906035313 12 355 6.4 9.7 0.00 0.00 0.00 35 1020.7
20260906034821 12 355 6.4 9.7 0.00 0.00 0.00 35 1020.8
20260906034321 12 10 8.0 9.7 0.00 0.00 0.00 35 1020.7
20260906033808 13 5 6.4 9.7 0.00 0.00 0.00 35 1020.7
20260906033336 13 5 8.0 9.7 0.00 0.00 0.00 34 1020.6
20260906032842 13 9 4.8 6.4 0.00 0.00 0.00 34 1020.6
20260906032308 14 9 0.0 8.0 0.00 0.00 0.00 33 1020.5
20260906031814 14 9 3.2 8.0 0.00 0.00 0.00 33 1020.5
20260906031321 13 9 6.4 8.0 0.00 0.00 0.00 33 1020.4
20260906030821 13 9 3.2 6.4 0.00 0.00 0.00 33 1020.4
20260906030307 15 10 0.0 3.2 0.00 0.00 0.00 33 1020.4
20260906025813 15 350 0.0 4.8 0.00 0.00 0.00 31 1020.3
20260906025319 15 346 1.6 8.0 0.00 0.00 0.00 30 1020.3
20260906024825 16 346 3.2 8.0 0.00 0.00 0.00 29 1020.3
20260906024304 16 348 4.8 8.0 0.00 0.00 0.00 28 1020.2
20260906023810 17 349 3.2 4.8 0.00 0.00 0.00 27 1020.1
20260906023317 17 325 1.6 3.2 0.00 0.00 0.00 26 1020.0
20260906022816 18 219 0.0 0.0 0.00 0.00 0.00 24 1020.0
20260906022306 18 219 0.0 3.2 0.00 0.00 0.00 24 1019.9
20260906021808 18 219 0.0 3.2 0.00 0.00 0.00 24 1019.9
20260906021315 18 219 0.0 6.4 0.00 0.00 0.00 24 1019.9
20260906020814 19 219 0.0 6.4 0.00 0.00 0.00 24 1019.9
20260906020320 20 219 1.6 8.0 0.00 0.00 0.00 22 1019.9
20260906015806 20 223 3.2 9.7 0.00 0.00 0.00 22 1019.9
20260906015334 20 217 4.8 11.3 0.00 0.00 0.00 22 1019.8
20260906014820 21 211 4.8 14.5 0.00 0.00 0.00 21 1019.8
20260906014326 21 215 6.4 14.5 0.00 0.00 0.00 21 1019.7
20260906013805 22 232 6.4 17.7 0.00 0.00 0.00 21 1019.8
20260906013311 22 230 9.7 17.7 0.00 0.00 0.00 20 1019.8
20260906012838 22 221 11.3 17.7 0.00 0.00 0.00 20 1019.8
20260906012325 22 219 6.4 14.5 0.00 0.00 0.00 21 1019.9
20260906011810 22 222 8.0 16.1 0.00 0.00 0.00 22 1019.9
20260906011310 22 223 6.4 12.9 0.00 0.00 0.00 22 1019.9
20260906010816 23 210 3.2 9.7 0.00 0.00 0.00 23 1019.9
20260906010324 23 207 4.8 11.3 0.00 0.00 0.00 23 1020.0
20260906005831 23 215 6.4 14.5 0.00 0.00 0.00 23 1020.0
20260906005317 23 211 6.4 16.1 0.00 0.00 0.00 23 1019.9
20260906004843 23 202 9.7 20.9 0.00 0.00 0.00 21 1019.9
20260906004302 24 202 9.7 24.1 0.00 0.00 0.00 20 1019.9
20260906003808 24 217 11.3 27.4 0.00 0.00 0.00 19 1019.9
20260906003314 25 209 16.1 35.4 0.00 0.00 0.00 19 1019.9
20260906002819 25 214 20.9 35.4 0.00 0.00 0.00 19 1019.9
20260906002325 25 205 12.9 22.5 0.00 0.00 0.00 19 1019.8
20260906001804 26 225 16.1 22.5 0.00 0.00 0.00 19 1019.8
20260906001310 26 233 11.3 20.9 0.00 0.00 0.00 17 1019.9
20260906000817 25 229 11.3 24.1 0.00 0.00 0.00 19 1019.9
20260906000318 25 213 11.3 25.7 0.00 0.00 0.00 18 1019.9
20260905235821 26 224 17.7 25.7 0.00 0.00 0.00 18 1019.9
20260905235308 26 220 9.7 24.1 0.00 0.00 0.00 20 1019.9
20260905234814 26 202 14.5 30.6 0.00 0.00 0.00 19 1019.8
20260905234320 26 209 22.5 30.6 0.00 0.00 0.00 17 1019.8
20260905233846 26 201 24.1 29.0 0.00 0.00 0.00 17 1019.8
20260905233306 26 209 20.9 30.6 0.00 0.00 0.00 17 1019.8
20260905232811 26 224 12.9 27.4 0.00 0.00 0.00 18 1019.7
20260905232318 26 200 16.1 29.0 0.00 0.00 0.00 19 1019.8
20260905231825 26 217 14.5 22.5 0.00 0.00 0.00 17 1019.9
20260905231310 26 188 14.5 27.4 0.00 0.00 0.00 18 1019.9